sat.trackr.live / text

‹ back to catalog

STARLINK-6050

NORAD 56458 · 2023-064L

PAYLOAD ACTIVE UNKNOWN

§ Identity

Operator
Country
US
Launch date
2023-05-10
Launch site
AFWTR
Launch vehicle
Mass (kg)
RCS (m²)

Purposes: comms

External: N2YO · Heavens-Above · Gunter

§ Orbital elements

Epoch: 2026-05-25T04:36:31.377312Z

Period
96.11 min
Inclination
69.9988°
Eccentricity
0.0002705
Mean motion
14.98330906 rev/d
Perigee alt
570.2 km
Apogee alt
573.9 km
Semi-major
6,950.2 km
B*
2.0290e-5
RAAN
311.6330°
Arg perigee
269.6753°
Mean anomaly
90.4096°
Rev number
16,670

§ Raw data

STARLINK-60501 56458U 23064L   26145.19202983  .00000149  00000+0  20290-4 0  99952 56458  69.9988 311.6330 0002705 269.6753  90.4096 14.98330906166709

JSON: /api/v1/satellites/56458 · /tle

For live sub-satellite position, see the globe view (requires WebGL).

§ Visibility from observer

Set your observer location to see the next 7 days of passes ≥ 10°. The values pass through the URL so the page stays shareable.

No JS? Fill the form by hand. The geolocation button needs JavaScript.